SCP
0 0 0 0 0 0 0 0 0 0 0 0 0 0 0 0 0 0 0 0 0 0 0 0 0 0 0 0 0 0 0 0 0 0 0 0 0 0 0 0 0 0 0
0 0 0 0 0 0 0 0 0 0 0 0 0 0 0 0 0 0 0 0 0 0 0 0 0 0 0 0 0 0 0 0 0 0 0 0 0 0 0 0 0 0 0
0 0 0 0 0 0 0 0 0 0 0 0 0 0 0 0 0 0 0 0 0 0 0 0 0 0 0 0 0 0 0 0 0 0 0 0 0 0 0 0 0 0 0
0 0 0 0 0 0 0 0 0 0 0 0 0 0 0 0 0 0 0 0 0 0 0 0 0 0 0 0 0 0 0 0 0 0 0 0 0 0 0 0 0 0 0
0 0 0 0 0 0 0 0 0 0 0 0 0 0 0 0 0 0 0 0 0 0 0 0 0 0 0 0 0 0 0 0 0 0 0 0 0 0 0 0 0 0 0
0 0 0 0 0 0 0 0 0 0 0 0 0 0 0 0 0 0 0 0 0 0 0 0 0 0 0 0 0 0 0 0 0 0 0 0 0 0 0 0 0 0 0
0 0 0 0 0 0 0 0 0 0 0 0 0 0 0 0 0 0 0 0 0 0 0 0 0 0 0 0 0 0 0 0 0 0 0 0 0 0 0 0 0 0 0
0 0 0 0 0 0 0 0 0 0 0 0 0 0 0 0 0 0 0 0 0 0 0 0 0 0 0 0 0 0 0 0 0 0 0 0 0 0 0 0 0 0 0
0 0 0 0 0 0 0 0 0 0 0 0 0 0 0 0 0 0 0 0 0 0 0 0 0 0 0 0 0 0 0 0 0 0 0 0 0 0 0 0 0 0 0
0 0 0 0 0 0 0 0 0 0 0 0 0 0 0 0 0 0 0 0 0 0 0 0 0 0 0 0 0 0 0 0 0 0 0 0 0 0 0 0 0 0 0
0 0 0 0 0 0 0 0 0 0 0 0 0 0 0 0 0 0 0 0 0 0 0 0 0 0 0 0 0 0 0 0 0 0 0 0 0 0 0 0 0 0 0
0 0 0 0 0 0 0 0 0 0 0 0 0 0 0 0 0 0 0 0 0 0 0 0 0 0 0 0 0 0 0 0 0 0 0 0 0 0 0 0 0 0 0
0 0 0 0 0 0 0 0 0 0 0 0 0 0 0 0 0 0 0 0 0 0 0 0 0 0 0 0 0 0 0 0 0 0 0 0 0 0 0 0 0 0 0
0 0 0 0 0 0 0 0 0 0 0 0 0 0 0 0 0 0 0 0 0 0 0 0 0 0 0 0 0 0 0 0 0 0 0 0 0 0 0 0 0 0 0
0 0 0 -0 -0 0 0 0 0 0 0 0 0 0 0 0 0 0 0 0 0 0 0 0 0 0 0 0 0 0 0 0 0 0 0 0 0 0 0 0 0 0 0
0 0 0 -0 -0 -0 -0 -0 0 0 0 0 0 0 0 0 0 0 0 0 0 0 0 0 0 0 0 0 0 0 0 0 0 0 0 0 0 0 0 0 0 0 0
0 0 0 -0 -0 -0 -0 -0 0 0 0 0 0 0 0 0 0 -0 -0 0 0 0 0 0 0 0 0 0 0 0 0 0 0 0 0 0 0 0 0 0 0 0 0
0 0 0 0 0 0 -0 -0 -0 0 0 0 0 0 0 -0 -0 -0 -0 0 0 0 0 0 0 0 0 0 0 0 0 0 0 0 0 0 0 0 0 0 0 0 0
0 0 0 0 0 0 0 -0 -0 -0 0 0 0 0 -0 -0 -0 -0 0 0 0 0 0 0 0 0 0 0 0 0 0 0 0 0 0 0 0 0 0 0 0 0 0
0 0 0 0 0 0 0 -0 -0 -0 0 0 0 -0 -0 -0 -0 -0 0 0 0 0 0 0 0 0 0 0 0 0 0 0 0 0 0 0 0 0 0 0 0 0 0
0 0 0 0 0 0 0 0 0 0 0 -0 -0 -0 -0 -0 -0 -0 0 0 0 0 0 0 0 0 0 0 0 0 0 0 0 0 0 0 0 0 0 0 0 0 0
0 0 0 0 0 0 0 0 0 0 0 -0 -0 -0 -0 -0 -0 -0 -0 -0 0 0 0 0 0 0 0 0 0 0 0 0 0 0 0 0 0 0 0 0 0 0 0
0 0 0 0 0 0 0 0 0 0 -0 -0 -0 -0 -0 -0 -0 -0 -0 0 0 0 0 0 0 0 0 0 0 0 0 0 0 0 0 0 0 0 0 0 0 0 0
0 0 0 0 0 0 -0 -0 -0 -0 -0 -0 -0 -0 -0 -0 -0 -0 0 0 0 0 0 0 0 0 0 0 0 0 0 0 0 0 0 0 0 0 0 0 0 0 0
0 0 0 0 0 0 -0 -0 -0 -0 -0 -0 -0 0 0 0 0 0 0 0 0 0 0 0 0 0 0 0 0 0 0 0 0 0 0 0 0 0 0 0 0 0 0
0 0 0 0 0 0 -0 -0 -0 -0 -0 -0 0 0 -0 0 0 0 0 0 0 0 0 0 0 0 0 0 0 0 0 0 0 0 0 0 0 0 0 0 0 0 0
Wind_Speed
6 3 3 3 3 3 3 4 4 4 4 3 2 2 1 1 1 1 1 2 2 2 2 1 1 1 1 2 2 2 2 2 1 1 3 3 3 4 3 3 3 4 5
4 3 2 2 3 4 4 4 4 4 4 3 3 2 2 1 1 1 0 1 1 2 2 2 1 1 1 1 1 1 1 1 1 1 1 3 3 2 3 3 4 4 3
7 5 4 4 4 4 5 5 5 5 4 4 3 2 2 1 1 0 0 1 1 1 2 2 2 2 2 2 2 2 2 2 2 1 2 2 3 3 3 4 4 4 4
5 5 4 4 5 5 4 4 4 4 4 4 4 4 3 2 2 1 1 1 0 1 1 2 2 2 2 2 3 2 2 3 2 2 2 2 2 2 4 3 3 4 5
6 6 5 5 4 4 3 3 3 3 3 4 5 4 3 1 0 0 0 1 1 1 1 1 2 2 2 3 3 2 2 3 3 2 2 2 2 3 3 5 4 4 4
5 4 3 2 2 2 3 3 4 3 3 3 4 4 4 2 2 1 1 1 1 1 1 1 2 2 2 3 3 3 3 3 3 3 3 2 2 2 3 5 5 5 4
4 4 3 3 3 3 3 3 4 3 2 3 3 3 3 3 3 2 2 1 1 2 2 2 2 2 2 3 3 3 3 4 4 4 4 4 4 3 3 4 5 6 5
3 4 4 4 4 4 4 4 4 3 3 3 3 2 3 2 2 2 2 2 2 2 2 2 2 3 3 3 3 3 4 4 4 5 5 4 4 3 3 3 4 6 5
4 3 3 4 4 4 4 4 4 3 2 2 3 2 2 2 1 1 1 1 2 2 2 2 3 3 3 3 3 3 4 4 5 5 5 5 4 4 4 3 3 5 7
3 3 3 4 3 3 3 3 4 4 3 3 2 1 1 1 1 0 1 1 2 2 2 3 3 3 4 3 3 4 4 5 5 4 5 5 4 4 4 4 4 5 6
4 3 3 3 3 3 3 3 3 3 3 2 2 2 1 0 1 0 1 2 2 2 3 3 3 4 4 4 4 4 4 5 5 5 6 6 5 4 4 4 4 5 5
2 2 3 3 3 3 3 3 3 3 2 2 2 2 1 1 1 1 2 2 2 3 3 3 3 4 4 4 4 5 5 5 6 6 6 6 5 5 5 4 5 5 6
1 1 2 3 3 3 3 2 2 3 2 3 2 2 1 1 1 1 2 2 2 3 3 3 3 4 4 4 4 5 5 5 5 6 6 6 6 6 5 6 6 5 6
2 3 3 3 3 3 3 3 2 2 2 3 2 2 0 0 1 1 2 2 3 3 4 4 4 4 5 5 5 5 5 5 5 6 6 6 6 7 7 6 6 6 6
2 3 4 3 3 3 2 2 2 1 2 3 2 1 0 1 1 1 2 3 3 4 4 4 5 4 4 4 5 5 5 5 5 6 6 6 8 9 8 6 5 5 5
3 4 4 4 3 3 3 2 1 1 2 2 1 0 0 1 1 2 3 3 4 4 4 4 5 5 4 7 9 7 5 5 5 6 6 7 7 9 11 12 11 9 8
4 4 4 4 3 3 3 3 2 1 2 1 1 0 0 1 2 3 3 4 4 4 4 5 5 5 6 9 9 9 5 4 5 6 6 6 7 9 7 9 11 11 13
4 4 3 3 2 2 2 2 2 2 1 1 0 0 0 1 2 2 3 4 4 4 4 5 5 5 7 10 10 10 5 5 5 6 6 7 7 7 8 7 7 8 8
3 4 3 3 3 2 2 3 2 2 2 1 1 1 1 1 2 3 3 4 4 4 4 5 5 5 7 10 10 10 4 4 6 6 6 6 7 11 12 8 8 8 7
3 3 3 3 3 2 3 3 2 1 0 1 1 1 1 1 2 3 3 3 3 4 5 5 5 5 6 10 11 10 4 4 5 5 5 8 9 12 12 7 6 8 7
3 3 3 3 2 2 3 3 2 1 1 1 1 1 1 2 2 2 3 3 4 4 5 5 5 5 6 9 11 10 5 4 5 5 4 5 11 12 12 10 6 8 8
3 3 3 2 1 1 3 2 1 1 0 1 1 1 2 2 2 2 3 3 3 4 5 5 5 4 5 7 9 11 10 9 5 5 4 5 10 11 11 8 8 11 9
2 2 3 2 1 1 2 2 0 0 1 1 1 2 2 2 2 2 3 3 3 3 4 4 5 5 5 6 10 11 11 11 6 5 8 9 10 10 7 8 10 8 4
2 2 3 2 1 1 2 1 0 1 1 1 1 2 2 2 2 2 2 2 3 3 4 4 5 5 5 5 5 4 5 7 6 5 6 8 8 7 7 7 5 4 3
1 2 2 2 1 1 1 1 1 1 1 1 1 2 2 2 2 2 2 3 3 4 5 4 4 5 6 7 11 8 5 4 5 5 3 2 3 3 3 3 4 3 3
1 1 1 1 1 1 1 1 1 0 0 1 2 2 2 2 2 3 4 5 6 9 9 9 8 7 9 13 13 12 11 11 9 5 2 3 3 4 4 4 4 3 3
Wind_Direction
247 236 218 198 177 179 182 186 174 175 161 155 158 165 190 209 207 199 196 187 185 180 171 188 202 199 205 225 237 246 267 262 249 284 295 284 262 254 247 243 248 252 252
241 234 212 192 187 191 189 185 183 179 175 175 172 171 171 182 197 202 184 187 183 188 189 187 210 220 225 240 243 225 247 269 209 185 299 304 306 278 253 250 252 256 256
218 219 211 209 196 194 193 186 184 180 177 162 137 108 85 73 92 268 251 254 205 200 206 211 215 225 220 231 241 216 216 245 242 188 200 249 266 300 273 248 244 251 256
217 210 203 206 206 206 194 184 171 170 168 157 155 159 167 191 217 210 210 293 246 212 217 219 219 224 228 230 237 225 221 220 242 240 228 238 242 266 293 284 261 260 260
212 208 204 205 207 195 181 178 154 153 157 156 160 157 164 183 166 86 104 310 315 314 250 227 223 230 235 236 234 229 230 219 224 227 231 249 261 237 254 281 287 279 256
212 208 203 187 184 168 159 154 143 148 147 145 152 156 160 158 140 194 227 279 301 297 285 251 237 235 238 240 237 228 224 229 226 229 226 224 232 244 252 270 282 282 275
194 191 184 178 173 167 164 153 146 151 148 142 149 155 161 161 176 198 211 241 269 274 272 267 250 246 246 246 242 235 235 231 229 231 235 235 239 245 256 269 280 284 285
194 196 195 183 176 173 167 156 153 154 147 141 144 144 148 162 186 202 209 233 251 257 258 256 260 260 255 259 251 243 240 239 236 241 237 241 244 239 244 254 276 289 283
203 199 190 180 172 167 166 159 154 144 144 147 145 141 145 148 182 222 229 257 272 280 280 271 268 267 262 255 256 254 247 241 237 240 238 240 243 238 240 244 247 263 281
202 194 187 180 174 168 159 149 153 155 154 143 139 129 141 152 161 186 262 277 282 285 287 286 280 273 267 261 256 261 259 245 244 242 241 243 245 244 240 240 246 245 259
202 191 184 169 153 143 140 142 144 138 132 130 125 117 96 68 77 49 284 282 292 296 293 288 286 284 280 271 262 261 262 259 256 251 249 249 244 246 247 245 247 250 252
198 172 159 145 136 138 141 145 145 137 142 135 123 121 96 58 54 344 309 311 310 308 304 301 300 297 293 284 275 272 268 263 261 256 252 252 251 246 246 244 248 252 253
177 144 137 143 145 145 143 140 141 142 138 126 118 107 91 56 6 325 322 329 322 318 317 313 303 296 292 288 281 275 271 266 263 260 255 256 253 254 254 251 252 254 260
188 166 157 154 148 144 144 139 133 136 133 122 115 106 92 349 329 331 331 324 318 316 311 303 295 289 288 285 281 276 272 270 269 267 259 253 250 254 258 257 255 260 262
205 178 168 163 152 143 138 136 137 140 133 120 111 117 42 347 346 338 327 324 322 320 310 306 301 290 283 279 279 275 275 274 276 275 268 260 262 266 265 267 262 262 264
209 187 169 160 164 165 158 142 141 138 119 123 139 129 63 357 337 327 327 330 327 323 319 309 303 299 293 297 296 292 280 277 277 282 282 276 268 273 276 279 278 272 267
198 179 176 174 173 169 158 162 169 138 129 137 130 81 47 341 323 328 335 328 320 320 317 308 304 298 297 303 302 301 292 278 275 275 276 283 284 285 269 275 279 275 276
176 169 165 160 153 137 134 135 127 124 120 93 42 357 345 319 321 329 323 317 316 315 310 310 306 302 306 311 307 305 291 273 271 270 263 269 277 278 280 272 269 265 266
165 161 157 152 140 134 134 118 102 96 86 58 305 289 288 302 313 316 313 312 314 315 310 306 306 304 305 311 312 308 282 275 271 269 268 273 271 284 294 286 280 281 278
124 128 123 116 120 129 125 116 115 102 116 271 287 303 301 294 299 302 305 308 310 308 311 310 304 299 297 307 311 313 287 284 285 278 271 279 286 292 295 284 279 284 289
112 115 114 119 138 137 128 126 126 186 255 314 335 333 321 305 295 302 308 313 315 317 317 312 305 299 299 307 311 314 302 288 288 284 281 279 293 295 296 295 279 284 294
99 106 107 96 86 128 135 133 166 239 20 22 341 325 319 315 324 322 317 316 317 319 320 320 316 308 303 309 310 314 313 312 294 285 285 288 298 299 300 298 294 299 303
116 116 119 107 65 97 131 138 229 43 45 16 333 322 328 326 318 310 311 316 316 316 317 318 316 315 310 305 312 316 316 314 306 291 300 306 310 308 301 302 306 306 294
116 111 107 99 59 48 63 99 22 46 53 359 332 329 329 323 320 313 306 305 306 305 306 309 309 311 310 309 308 303 305 309 305 298 303 311 314 312 309 307 306 298 287
115 118 126 131 137 93 59 29 27 54 27 346 332 327 320 314 313 312 301 298 283 289 301 296 297 305 305 308 317 319 314 311 304 312 309 317 316 314 313 312 308 304 306
117 112 117 132 145 107 31 6 1 41 26 327 322 313 311 311 311 312 316 314 313 316 317 314 309 302 307 315 321 322 325 327 327 330 319 313 312 312 314 314 313 310 307